Location: Ellerstadt
(49.4644°N, 8.2615°E)
Time: 05:06:37
(UTC+00:00)

SL-4 R/B - Pass Details

Date: 03 March 2021
Orbit: 428 x 663 km, 51.6° (Epoch: 11 April)

Event Time Altitude Azimuth Distance (km) Brightness Sun altitude
Rises 19:50:50 0° 289° (WNW) 2,451 6.7 -26.0°
Reaches altitude 10° 19:53:02 10° 284° (WNW) 1,555 5.3 -26.3°
Enters shadow 19:54:48 26° 270° (W) 889 3.6 -26.6°
